NOAA 16 DEB, 41139

Orbit data source: Space-Track

NOAA 16 DEB, 41139 is space debris in SSO originally from a launch on Thu, 21 Sep 2000 UTC launched from the Air Force Western Test Range (AFWTR). Debris objects in space refer to the collection of defunct objects orbiting the Earth. Examples of debris include non-operational satellites, rocket bodies, and fragments generated from explosions, collisions, or faulty payload assembly.

Loading next visibility...
Identifier
41139, 2000-055BW
Orbit
SSO
Country
Flag of USUS
Related business
Manufacturer
Unknown
Mission
Spacecraft
Bus & Motor
Unknown
Mass
Unknown
Launch date (UTC)
2000-09-21 (25 years ago)
Launch vehicle
Unknown
Launch site
Air Force Western Test Range (AFWTR)
Object type
Payload
Rocket body
Debris
Shape & HBR
Unknown shape, 0.1 m
Radar Cross Section
Small (<0.1 m²)

Expand to show TLE details & history
Last TLE update: 1 day ago

TLE from 1 day ago
0 NOAA 16 DEB
1 41139U 00055BW  25296.10372615  .00005746  00000-0  29232-2 0  9999
2 41139  98.9977 354.3942 0056237 333.9531  25.8815 14.15391162505876
Epoch: 2025-10-23T02:29Z
TLE epoch observation values (Epoch: 2025-10-23T02:29:21.939Z)
Latitude
0.00002°
Longitude
-74.715°
Altitude
807.391 km
Speed
7.468 km/s
True Right ascension
23h 37m 34s
True Declination
0° 00' 00"
Sunlit
Object was in full shadow at epoch
Visualization orbit readout
Latitude
Unknown
Longitude
Unknown
Altitude
Unknown
Speed
Unknown
Apparent Right ascension
Unknown
Apparent Declination
Unknown
Sunlit
N/A
Visualization observer readout
Local Sidereal Time
01:23:30
Azimuth
Unknown
Elevation
Unknown
Doppler factor
Unknown
Orbital elements
Apogee altitude
878.743 km
Perigee altitude
797.578 km
Semi-major axis
7,216.297 km
Eccentricity
0.00562
Inclination
98.9977°
RAAN
354.3942°
Arg. of periapsis
333.9531°
True anomaly
26.16459°
Mean anomaly
25.8815°
Eccentric anomaly
26.02287°
Mean motion
3.54056 °/min
Orbital period
101.68 mins
BSTAR
0.0029232
Loading maneuver chart data...
Computing Atmospheric mass density...
Loading historical data...
Loading historical data...
Loading historical data...
Loading historical data...
Loading historical data...
Loading historical data...
Loading historical data...

Documentation

Showing up to 5 results
|